STARLINK-35274, 66073

Orbit data source: Space-Track

STARLINK-35274, 66073 is a payload satellite owned by SpaceX/Seattle (US) in LEO that was launched on Sun, 19 Oct 2025 UTC via an FALCON 9 launch vehicle from the Air Force Eastern Test Range (AFETR). Payload-class satellites include a variety of spacecraft equipped with specific instruments for various scientific and technological missions. These include communications satellites like Starlink; space stations such as the ISS; scientific satellites like the Hubble; Earth observation satellites from companies like Planet Labs, Umbra, and HawkEye 360; GPS; miniature CubeSats for education and research; and military/defense satellites.

Loading next visibility...
Identifier
66073, 2025-235R
Orbit
LEO
Country
Flag of USUS
Related business
Manufacturer
SpaceX/Seattle
Mission
Operational Commercial Communications
Bus & Motor
STARLINK V2MO, Unknown motor
Mass
575 kg wet, ~530 kg dry
Launch date (UTC)
2025-10-19 (8 months ago)
Launch vehicle
FALCON 9
Launch site
Air Force Eastern Test Range (AFETR)
Object type
Payload
Rocket body
Debris
Shape & HBR
Box + 2 Pan, 17.7 m
Radar Cross Section
36.964 m², Large (>1 m²)

Expand to show TLE details & history
Last TLE update: 1 day ago

TLE from 1 day ago
0 STARLINK-35274
1 66073U 25235R   26170.62449488  .00023222  00000-0  79281-3 0  9991
2 66073  53.1606 132.1131 0001595  82.8453 277.2729 15.30237002 38524
Epoch: 2026-06-19T14:59Z
TLE epoch observation values (Epoch: 2026-06-19T14:59:16.357Z)
Latitude
-0.00004°
Longitude
-0.55588°
Altitude
475.866 km
Speed
7.629 km/s
True Right ascension
08h 48m 27s
True Declination
0° 00' 00"
Sunlit
Object was in daylight at epoch
Visualization orbit readout
Latitude
Unknown
Longitude
Unknown
Altitude
Unknown
Speed
Unknown
Apparent Right ascension
Unknown
Apparent Declination
Unknown
Sunlit
N/A
Visualization observer readout
Local Sidereal Time
07:18:49
Azimuth
Unknown
Elevation
Unknown
Doppler factor
Unknown
Orbital elements
Apogee altitude
476.454 km
Perigee altitude
474.268 km
Semi-major axis
6,853.498 km
Eccentricity
0.00016
Inclination
53.1606°
RAAN
132.1131°
Arg. of periapsis
82.8453°
True anomaly
277.25477°
Mean anomaly
277.2729°
Eccentric anomaly
277.26383°
Mean motion
3.82538 °/min
Orbital period
94.11 mins
BSTAR
0.00079281
Loading maneuver chart data...
Computing Atmospheric mass density...
Loading historical data...
Loading historical data...
Loading historical data...
Loading historical data...
Loading historical data...
Loading historical data...
Loading historical data...

Documentation

Showing up to 5 results
|